CAPE
2 1 1 1 1 1 1 0 0 0 0 0 0 0 0 0 0 0 0 0 0 0 0 0 0 0 0 0 0 0 0 0 0 0 0 0 0 0 0 0 0 0 0 0 0 0 258
2 2 2 2 2 2 1 1 0 0 0 0 0 0 0 0 0 0 0 0 0 0 0 0 0 0 0 0 0 0 0 0 0 0 0 0 0 0 0 0 0 0 0 0 0 0 46
2 2 1 1 2 1 1 1 0 0 0 0 0 0 0 0 0 0 0 0 0 0 0 0 0 0 0 0 0 0 0 0 0 0 0 0 0 0 0 0 0 0 0 0 0 0 71
2 2 3 2 2 1 2 1 1 0 0 0 0 0 0 0 0 0 0 0 0 0 0 0 0 0 0 0 0 0 0 0 0 0 0 0 0 0 0 0 0 0 0 0 0 51 108
3 2 1 1 2 1 1 1 0 0 0 0 0 0 0 0 0 0 0 0 0 0 0 0 0 0 0 0 0 0 0 0 0 0 0 0 0 0 0 0 0 0 0 0 0 45 123
2 2 2 3 3 2 1 1 1 0 0 0 0 0 0 0 0 0 0 0 0 0 0 0 0 0 0 0 0 0 0 0 0 0 0 0 0 0 0 0 0 0 0 0 0 11 69
1 2 2 1 1 1 1 0 0 0 0 0 0 0 0 0 0 0 0 0 0 0 0 0 0 0 0 0 0 0 0 0 0 0 0 0 0 0 0 0 0 0 0 0 0 0 31
1 2 2 2 2 2 1 0 0 0 0 0 0 0 0 0 0 0 0 0 0 0 0 0 0 0 0 0 0 0 0 0 0 0 0 0 0 0 0 0 0 0 0 0 0 16 24
0 0 0 0 0 0 0 0 0 0 0 0 0 0 0 0 0 0 0 0 0 0 0 0 0 0 0 0 0 0 0 0 0 0 0 0 0 0 0 0 0 0 0 0 0 14 44
0 0 0 0 0 0 1 0 0 0 0 0 0 0 0 0 0 0 0 0 0 0 0 0 0 0 0 0 0 0 0 0 0 0 0 0 0 0 0 0 0 0 0 0 0 0 17
0 0 0 0 0 0 1 1 0 0 0 0 0 0 0 0 0 0 0 0 0 0 0 0 0 0 0 0 0 0 0 0 0 0 0 0 0 0 0 0 0 0 0 0 0 0 0
0 0 0 0 0 1 0 0 0 0 0 0 0 0 0 0 0 0 0 0 0 0 0 0 0 0 0 0 0 0 0 0 0 0 0 0 0 0 0 0 0 0 0 0 0 0 0
0 0 0 0 0 0 0 0 0 0 0 0 0 0 0 0 0 0 0 0 0 0 0 0 0 0 0 0 0 0 0 0 0 0 0 0 0 0 0 0 0 0 0 0 0 0 0
0 0 0 0 0 0 0 1 2 0 0 0 0 0 0 0 0 0 0 0 0 0 0 0 0 0 0 0 0 0 0 0 0 0 0 0 0 0 0 0 0 0 0 0 0 0 0
0 0 0 1 0 0 1 0 0 0 0 0 0 0 0 0 0 0 0 0 0 0 0 0 0 0 0 0 0 0 0 0 0 0 0 0 0 0 0 0 0 0 0 0 0 0 0
0 0 0 0 0 0 0 0 0 0 0 0 0 0 0 0 0 0 0 0 0 0 0 0 0 0 0 0 0 0 0 0 0 0 0 0 0 0 0 0 0 0 0 0 0 0 0
0 0 0 0 1 0 0 0 0 0 0 0 0 0 0 0 0 0 0 0 0 0 0 0 0 0 0 0 0 0 0 0 0 0 0 0 0 0 0 0 0 0 0 0 0 0 0
0 0 0 0 1 1 0 0 0 0 0 0 0 0 0 0 0 0 0 0 0 0 0 0 0 0 0 0 0 0 0 0 0 0 0 0 0 0 0 0 0 0 0 0 0 0 0
0 0 0 0 1 1 0 0 0 0 0 0 0 0 0 0 0 0 0 0 0 0 0 0 0 0 0 0 0 0 0 0 0 0 0 0 0 0 0 0 0 0 0 0 0 0 0
0 0 0 0 1 1 0 0 0 0 0 0 0 0 0 0 0 0 0 0 0 0 0 0 0 0 0 0 0 0 0 0 0 0 0 0 0 0 0 0 0 0 0 0 0 0 0
0 0 0 0 1 0 0 1 2 0 0 0 0 0 0 0 0 0 0 0 0 0 0 0 0 0 0 0 0 0 0 0 0 0 0 0 0 0 0 0 0 0 0 0 0 0 0
0 0 0 0 2 1 1 1 2 0 0 0 0 0 0 0 0 0 0 0 0 0 0 0 0 0 0 0 0 0 0 0 0 0 0 0 0 0 0 0 0 0 0 0 0 0 0
0 0 0 0 2 1 0 1 2 2 0 0 0 0 0 0 0 0 0 1 0 0 0 0 0 0 0 0 0 0 0 0 0 0 0 0 0 0 0 0 0 0 0 0 0 0 0
0 0 0 1 2 1 2 1 2 3 0 0 0 0 0 0 0 0 0 0 0 0 0 0 0 0 0 0 0 0 0 0 0 0 0 0 0 0 0 0 0 0 0 0 6 18 0
0 0 0 2 0 2 2 0 2 4 0 0 0 0 0 0 0 0 0 0 0 0 0 0 0 0 0 0 0 0 0 0 0 0 0 0 0 0 0 0 0 0 0 0 0 0 0
0 0 0 3 0 2 1 2 4 5 1 0 0 0 0 1 0 0 0 0 0 0 0 0 0 0 0 5 5 0 0 0 0 0 0 0 0 0 0 0 0 0 0 0 0 0 0
0 0 0 2 1 2 2 3 5 3 0 0 0 0 0 1 0 0 0 0 0 0 0 0 0 0 0 0 0 0 0 0 0 0 0 0 0 0 0 0 0 0 0 3 17 0 0
0 0 0 1 0 1 3 3 4 1 0 0 0 0 1 1 0 0 0 0 0 0 0 0 0 0 0 0 0 1 0 14 1 0 0 0 0 0 0 0 0 0 0 0 0 0 0
0 0 0 1 1 1 2 0 0 0 0 0 1 0 0 5 0 0 0 0 0 0 0 0 0 0 3 0 0 0 0 1 3 0 0 0 0 0 0 0 0 0 0 0 0 0 0
CIN
-0 -0 -0 -0 -0 -0 -0 -0 -0 -0 -0 -0 -0 -0 -0 -0 -0 -0 -0 -0 -0 -0 -0 -0 -0 -0 -0 -0 -0 -0 -0 -0 -0 -0 -0 -0 -0 -0 -0 -0 -0 -0 -0 -0 -0 -0 -52
-0 -0 -0 -0 -0 -0 -0 -0 -0 -0 -0 -0 -0 -0 -0 -0 -0 -0 -0 -0 -0 -0 -0 -0 -0 -0 -0 -0 -0 -0 -0 -0 -0 -0 -0 -0 -0 -0 -0 -0 -0 -0 -0 -0 -0 -0 -20
-0 -0 -0 -0 -0 -0 -0 -0 -0 -0 -0 -0 -0 -0 -0 -0 -0 -0 -0 -0 -0 -0 -0 -0 -0 -0 -0 -0 -0 -0 -0 -0 -0 -0 -0 -0 -0 -0 -0 -0 -0 -0 -0 -0 -0 -0 -198
-0 -0 -0 -0 -0 -0 -0 -0 -0 -0 -0 -0 -0 -0 -0 -0 -0 -0 -0 -0 -0 -0 -0 -0 -0 -0 -0 -0 -0 -0 -0 -0 -0 -0 -0 -0 -0 -0 -0 -0 -0 -0 -0 -0 -0 -170 -177
-0 -0 -0 -0 -0 -0 -0 -0 -0 -0 -0 -0 -0 -0 -0 -0 -0 -0 -0 -0 -0 -0 -0 -0 -0 -0 -0 -0 -0 -0 -0 -0 -0 -0 -0 -0 -0 -0 -0 -0 -0 -0 -0 -0 -0 -125 -136
-0 -0 -0 -0 -0 -0 -0 -0 -0 -0 -0 -0 -0 -0 -0 -0 -0 -0 -0 -0 -0 -0 -0 -0 -0 -0 -0 -0 -0 -0 -0 -0 -0 -0 -0 -0 -0 -0 -0 -0 -0 -0 -0 -0 -0 -127 -82
-0 -0 -0 -0 -0 -0 -0 -0 -0 -0 -0 -0 -0 -0 -0 -0 -0 -0 -0 -0 -0 -0 -0 -0 -0 -0 -0 -0 -0 -0 -0 -0 -0 -0 -0 -0 -0 -0 -0 -0 -0 -0 -0 -0 -0 -0 -89
-0 -0 -0 -0 -0 -0 -0 -0 -0 -0 -0 -0 -0 -0 -0 -0 -0 -0 -0 -0 -0 -0 -0 -0 -0 -0 -0 -0 -0 -0 -0 -0 -0 -0 -0 -0 -0 -0 -0 -0 -0 -0 -0 -0 -0 -186 -132
-0 -0 -0 -0 -0 -0 -0 -0 -0 -0 -0 -0 -0 -0 -0 -0 -0 -0 -0 -0 -0 -0 -0 -0 -0 -0 -0 -0 -0 -0 -0 -0 -0 -0 -0 -0 -0 -0 -0 -0 -0 -0 -0 -0 -0 -46 -154
-0 -0 -0 -0 -0 -0 -0 -0 -0 -0 -0 -0 -0 -0 -0 -0 -0 -0 -0 -0 -0 -0 -0 -0 -0 -0 -0 -0 -0 -0 -0 -0 -0 -0 -0 -0 -0 -0 -0 -0 -0 -0 -0 -0 -0 -0 -22
-0 -0 -0 -0 -0 -0 -0 -0 -0 -0 -0 -0 -0 -0 -0 -0 -0 -0 -0 -0 -0 -0 -0 -0 -0 -0 -0 -0 -0 -0 -0 -0 -0 -0 -0 -0 -0 -0 -0 -0 -0 -0 -0 -0 -0 -0 -0
-0 -0 -0 -0 -0 -0 -0 -0 -0 -0 -0 -0 -0 -0 -0 -0 -0 -0 -0 -0 -0 -0 -0 -0 -0 -0 -0 -0 -0 -0 -0 -0 -0 -0 -0 -0 -0 -0 -0 -0 -0 -0 -0 -0 -0 -0 -0
-0 -0 -0 -0 -0 -0 -0 -0 -2 -1 -0 -0 -0 -0 -0 -0 -0 -0 -0 -0 -0 -0 -0 -0 -0 -0 -0 -0 -0 -0 -0 -0 -0 -0 -0 -0 -0 -0 -0 -0 -0 -0 -0 -0 -0 -0 -0
-0 -0 -0 -0 -0 -0 -1 -1 -1 -0 -0 -0 -0 -0 -0 -0 -0 -0 -0 -0 -0 -0 -0 -0 -0 -0 -0 -0 -0 -0 -0 -0 -0 -0 -0 -0 -0 -0 -0 -0 -0 -0 -0 -0 -0 -0 -0
-0 -0 -0 -0 -0 -0 -3 -1 -0 -0 -0 -0 -0 -0 -0 -0 -0 -0 -0 -0 -0 -0 -0 -0 -0 -0 -0 -0 -0 -0 -0 -0 -0 -0 -0 -0 -0 -0 -0 -0 -0 -0 -0 -0 -0 -0 -0
-0 -0 -0 -0 -0 -0 -0 -0 -0 -0 -0 -0 -0 -0 -0 -0 -0 -0 -0 -0 -0 -0 -0 -0 -0 -0 -0 -0 -0 -0 -0 -0 -0 -0 -0 -0 -0 -0 -0 -0 -0 -0 -0 -0 -0 -0 -0
-0 -0 -0 -0 -2 -0 -0 -0 -0 -0 -0 -0 -0 -0 -0 -0 -0 -0 -0 -0 -0 -0 -0 -0 -0 -0 -0 -0 -0 -0 -0 -0 -0 -0 -0 -0 -0 -0 -0 -0 -0 -0 -0 -0 -0 -0 -0
-0 -0 -0 -0 -0 -1 -0 -0 -0 -0 -0 -0 -0 -0 -0 -0 -0 -0 -0 -0 -0 -0 -0 -0 -0 -0 -0 -0 -0 -0 -0 -0 -0 -0 -0 -0 -0 -0 -0 -0 -0 -0 -0 -0 -0 -0 -0
-0 -0 -0 -0 -0 -0 -1 -0 -0 -0 -0 -0 -0 -0 -0 -0 -0 -0 -0 -0 -0 -0 -0 -0 -0 -0 -0 -0 -0 -0 -0 -0 -0 -0 -0 -0 -0 -0 -0 -0 -0 -0 -0 -0 -0 -0 -0
-0 -0 -0 -0 -0 -0 -1 -2 -0 -0 -0 -0 -0 -0 -0 -0 -0 -0 -0 -0 -0 -0 -0 -0 -0 -0 -0 -0 -0 -0 -0 -0 -0 -0 -0 -0 -0 -0 -0 -0 -0 -0 -0 -0 -0 -0 -0
-0 -0 -0 -0 -1 -1 -1 -2 -5 -0 -0 -0 -0 -0 -0 -0 -0 -0 -0 -0 -0 -0 -0 -0 -0 -0 -0 -0 -0 -0 -0 -0 -0 -0 -0 -0 -0 -0 -0 -0 -0 -0 -0 -0 -0 -0 -0
-0 -0 -0 -0 -1 -1 -1 -3 -6 -0 -0 -0 -0 -0 -0 -0 -0 -0 -0 -0 -0 -0 -0 -0 -0 -0 -0 -0 -0 -0 -0 -0 -0 -0 -0 -0 -0 -0 -0 -0 -0 -0 -0 -0 -0 -0 -0
-0 -0 -0 -0 -1 -1 -1 -3 -7 -18 -0 -0 -0 -0 -0 -0 -0 -0 -1 -1 -0 -0 -0 -0 -0 -0 -0 -0 -0 -0 -0 -0 -0 -0 -0 -0 -0 -0 -0 -0 -0 -0 -0 -0 -0 -0 -0
-0 -0 -0 -1 -2 -2 -3 -6 -9 -15 -0 -0 -0 -0 -0 -0 -0 -0 -0 -0 -0 -0 -0 -0 -0 -0 -0 -0 -0 -0 -0 -0 -0 -0 -0 -0 -0 -0 -0 -0 -0 -0 -0 -0 -131 -257 -0
-0 -0 -0 -1 -0 -1 -4 -1 -8 -14 -0 -0 -0 -0 -3 -0 -0 -0 -0 -10 -0 -0 -0 -0 -0 -0 -0 -0 -0 -0 -0 -0 -0 -0 -0 -0 -0 -0 -0 -0 -0 -0 -0 -0 -0 -0 -15
-0 -0 -0 -2 -0 -1 -5 -8 -12 -15 -12 -0 -0 -0 -3 -0 -0 -0 -0 -0 -0 -0 -0 -0 -0 -0 -0 -8 -1 -0 -0 -0 -0 -0 -0 -0 -0 -0 -0 -0 -0 -0 -0 -0 -0 -0 -0
-0 -0 -0 -2 -2 -1 -6 -10 -15 -18 -8 -0 -0 -0 -0 -4 -0 -0 -0 -0 -0 -0 -0 -0 -0 -19 -0 -0 -0 -0 -0 -0 -0 -0 -0 -0 -0 -0 -0 -0 -0 -0 -0 -42 -148 -0 -0
-0 -0 -0 -3 -1 -3 -6 -9 -15 -1 -0 -0 -0 -0 -8 -5 -0 -0 -0 -0 -0 -0 -0 -0 -0 -0 -0 -0 -0 -0 -0 -6 -2 -0 -0 -0 -0 -0 -0 -0 -0 -0 -0 -0 -0 -0 -0
-0 -0 -0 -4 -2 -3 -7 -0 -0 -0 -0 -4 -11 -0 -0 -2 -0 -0 -0 -0 -0 -0 -0 -0 -0 -1 -0 -0 -0 -0 -0 -2 -0 -0 -0 -0 -0 -0 -0 -0 -0 -0 -0 -0 -0 -0 -0
Wind_Speed
32 33 33 33 34 35 36 36 37 37 38 39 40 40 41 42 42 43 43 42 41 39 37 35 33 30 25 25 27 25 23 18 6 7 10 12 18 21 23 23 21 28 25 25 23 21 6
33 34 35 35 36 37 37 37 38 38 39 40 40 41 42 43 44 44 44 44 42 40 39 35 30 25 24 31 20 22 16 14 15 10 16 15 17 22 23 27 24 20 25 26 24 26 15
34 35 36 37 37 38 38 38 38 39 39 40 41 42 43 44 44 45 45 44 42 41 37 31 23 20 26 32 19 24 24 21 19 17 19 23 21 17 19 26 25 25 25 26 23 10 10
35 36 37 38 38 39 39 38 38 39 40 41 42 43 44 45 45 46 46 43 42 37 30 22 16 20 30 23 25 30 26 23 22 22 25 20 20 26 23 23 23 24 20 22 17 2 5
34 35 37 38 38 39 39 39 37 39 40 41 41 42 43 43 44 45 43 42 39 27 20 13 20 22 31 25 24 22 19 20 19 25 23 16 15 23 22 23 26 21 18 17 18 12 9
32 34 35 36 37 38 39 38 38 39 40 41 41 41 39 37 38 37 37 38 27 17 18 19 21 25 25 21 21 23 19 20 19 18 21 18 19 21 23 19 26 23 19 18 17 22 17
33 34 34 35 37 38 39 39 40 41 42 41 40 40 38 35 35 33 33 24 25 22 23 28 30 31 33 27 24 19 18 20 21 21 23 20 21 23 23 23 26 22 21 21 18 19 24
34 34 36 36 37 36 37 38 40 42 42 40 39 38 37 35 34 24 22 22 22 22 31 33 35 36 34 27 28 28 18 20 25 29 26 26 32 30 24 24 25 26 28 24 21 17 22
34 35 36 35 35 35 36 36 40 42 42 40 38 39 39 38 31 20 19 20 24 25 26 27 21 22 22 20 29 33 21 21 25 28 30 32 30 29 29 29 27 25 31 27 22 18 16
34 33 34 35 35 35 36 38 40 42 38 38 38 38 39 38 20 29 12 22 30 19 23 21 19 18 16 16 24 27 27 24 25 31 27 33 34 30 35 34 27 30 26 27 27 24 25
33 33 34 34 35 36 36 40 43 41 40 37 36 36 35 32 25 19 17 30 28 16 24 20 17 15 22 19 20 17 22 27 33 27 27 31 29 35 36 40 30 26 24 29 31 31 27
33 33 34 36 36 36 37 40 41 41 41 38 38 35 35 24 18 14 25 28 15 14 20 19 19 22 20 19 21 21 19 21 27 29 30 35 26 28 39 36 33 29 32 27 25 27 34
33 33 36 35 34 35 39 35 36 42 41 39 36 35 32 20 19 22 27 17 14 10 22 19 22 24 18 20 17 19 20 23 26 35 39 35 39 33 26 34 33 31 26 29 34 32 40
32 34 35 33 33 35 32 33 37 43 41 39 37 32 21 11 17 24 22 16 12 13 16 20 22 20 17 18 18 19 16 19 20 26 33 39 38 39 30 36 30 34 31 27 31 33 38
32 33 36 35 33 34 33 35 38 43 41 39 35 26 20 18 17 19 21 17 16 11 17 22 21 17 20 20 19 18 14 14 16 19 30 32 38 31 35 29 31 29 30 34 28 27 29
31 32 33 33 30 35 33 35 38 43 41 38 31 24 18 21 15 21 20 18 16 19 22 18 15 18 20 22 20 19 18 15 19 20 24 27 35 33 31 28 32 33 23 29 29 36 37
29 32 33 30 31 33 34 35 37 41 42 36 25 19 17 25 18 22 20 17 17 21 20 16 16 17 16 21 21 22 22 19 18 21 18 24 30 32 30 35 36 33 33 30 28 31 37
26 29 31 30 32 33 34 34 36 40 41 31 24 20 23 22 21 20 20 18 19 19 19 18 18 19 21 23 23 23 25 21 20 20 23 23 29 37 35 29 30 33 31 34 37 35 33
26 30 31 32 32 33 33 33 34 37 36 28 25 20 23 20 21 21 20 20 20 17 19 18 19 21 22 24 27 26 24 25 24 24 24 25 28 36 33 28 27 30 29 28 31 33 40
25 29 32 31 31 33 32 31 31 32 31 26 24 22 22 21 20 20 22 21 20 20 18 19 21 22 26 27 26 31 34 27 29 29 27 26 29 32 36 35 32 36 34 30 30 37 39
27 29 32 29 29 30 29 29 28 25 27 23 25 23 20 23 23 24 20 19 20 23 22 23 22 23 25 30 33 32 33 37 32 27 27 27 34 32 34 32 33 36 37 34 33 34 38
25 29 30 28 28 28 28 28 26 24 25 23 23 23 22 21 21 22 22 23 24 22 22 24 21 20 22 27 31 41 37 35 35 31 29 29 34 31 35 31 32 35 35 34 34 34 35
24 28 29 29 27 25 26 26 24 23 24 23 22 21 21 23 23 20 20 20 21 21 15 18 19 20 26 28 31 33 35 37 37 36 35 33 32 32 37 32 32 35 31 30 30 27 31
24 27 29 27 24 23 24 24 22 21 22 22 21 22 23 22 22 20 18 19 21 19 15 17 19 24 24 24 29 32 35 39 41 43 36 35 33 32 37 32 42 27 17 21 22 22 25
24 27 28 23 22 22 23 22 20 18 18 20 20 21 21 21 19 17 18 16 16 16 14 18 22 27 25 6 30 33 34 35 42 45 43 39 34 35 36 37 30 26 24 27 28 28 23
24 28 25 22 22 22 23 22 20 19 18 19 20 20 21 21 19 17 17 15 14 11 21 21 24 25 10 10 21 30 37 34 36 36 37 34 38 34 33 37 40 28 29 29 26 29 23
24 28 24 22 20 20 22 21 20 19 17 19 20 19 20 21 17 17 16 14 12 17 17 17 14 8 11 9 20 22 29 29 34 38 42 38 39 44 38 33 29 23 24 20 28 29 25
25 27 23 21 19 18 19 20 20 19 17 19 20 17 18 19 15 15 16 16 12 15 14 12 9 8 11 11 8 18 25 27 27 27 34 38 40 39 34 31 36 21 17 21 23 20 19
25 26 22 19 17 17 18 18 18 19 17 18 20 18 17 17 16 13 12 14 17 15 12 12 9 5 9 12 8 18 21 24 25 32 21 32 29 31 29 27 18 12 11 14 15 17 15
Wind_Direction
359 355 349 346 345 346 343 345 336 333 329 327 326 324 322 320 317 313 310 309 305 302 302 301 301 301 305 294 280 280 279 293 294 250 232 243 251 250 252 257 263 249 256 266 238 274 113
2 358 355 355 347 347 346 348 339 339 333 328 325 324 322 320 319 315 310 307 303 302 298 300 303 305 300 280 294 285 293 282 271 257 251 245 258 252 259 253 257 270 265 269 251 239 143
7 7 1 357 353 354 351 347 346 338 335 330 329 329 325 322 319 316 312 307 304 302 299 299 305 305 291 274 292 277 276 268 263 259 256 248 248 255 261 253 260 265 272 275 250 99 125
12 7 3 359 355 352 350 350 349 342 338 335 332 331 329 324 320 316 312 307 305 306 307 308 305 303 284 294 283 270 266 265 258 255 247 257 248 250 257 264 264 258 275 274 261 194 137
15 10 3 2 359 356 354 355 357 350 341 337 336 334 330 322 319 317 311 307 308 318 325 327 304 295 281 289 278 278 270 263 260 251 249 261 243 247 253 257 249 257 261 267 260 245 155
18 13 10 7 3 359 357 357 356 351 343 334 327 323 314 308 307 304 303 306 326 336 329 316 302 288 282 284 282 278 277 257 260 255 248 248 247 243 247 246 239 244 253 263 264 241 246
15 12 10 8 2 358 355 355 351 344 336 327 321 319 310 304 304 300 326 353 332 315 310 294 286 278 274 282 282 269 274 258 252 253 243 245 239 236 238 246 244 248 252 257 262 266 242
13 10 7 5 3 2 0 358 352 343 333 322 317 314 310 305 301 286 11 18 2 337 302 296 283 274 271 278 267 260 271 255 245 243 243 245 240 240 244 245 245 245 245 251 265 276 251
10 8 7 6 4 3 1 359 351 343 330 318 315 314 312 308 297 7 5 11 358 336 314 308 310 291 287 268 258 253 259 255 248 241 241 242 243 241 241 242 241 244 239 242 253 264 270
9 9 8 5 3 1 359 356 350 336 315 313 314 312 313 311 348 322 27 349 315 352 318 308 313 308 305 290 268 260 254 251 251 242 244 245 240 241 238 238 240 241 243 247 251 254 250
8 7 6 4 2 360 358 353 337 321 318 312 309 309 308 308 336 0 6 306 313 355 296 315 319 342 304 282 280 274 261 246 242 243 241 241 243 238 238 234 237 240 247 248 249 250 255
6 5 4 2 1 0 356 350 347 321 318 312 310 305 305 341 356 15 341 326 3 349 304 316 317 301 308 294 280 280 267 254 246 244 246 242 249 244 237 236 238 242 246 251 254 254 249
5 4 2 2 3 1 352 0 359 322 318 311 305 300 299 342 351 350 339 359 356 354 321 311 296 294 302 291 285 284 262 246 240 235 238 242 240 243 241 234 236 234 236 241 241 245 240
6 5 4 6 5 1 4 4 358 333 321 312 306 299 355 31 4 347 352 351 359 15 333 313 306 307 292 302 282 285 270 252 254 247 240 237 238 235 237 234 235 231 231 237 238 241 239
6 6 4 4 7 4 7 5 1 342 324 316 312 335 358 356 11 12 350 336 348 27 344 305 299 313 283 280 284 277 278 269 262 264 240 239 238 243 236 237 231 233 233 238 248 251 247
7 6 6 7 10 3 6 5 1 350 330 319 335 337 4 345 21 360 348 337 344 348 311 316 311 305 289 280 280 279 265 285 267 277 258 250 239 240 233 236 236 235 235 234 240 237 239
7 6 6 10 9 6 5 4 2 356 335 332 352 354 359 340 2 346 348 351 349 333 312 329 312 300 303 289 284 272 265 266 288 278 267 259 243 238 234 233 230 231 235 240 243 245 238
10 10 9 9 7 5 4 5 3 355 344 1 351 353 333 344 341 348 349 349 348 342 331 316 306 295 292 291 287 278 262 264 290 289 264 265 245 237 237 237 237 236 237 238 239 238 243
10 7 9 7 6 5 5 6 5 357 359 9 352 357 348 354 342 341 342 340 345 342 336 328 310 301 298 291 281 275 274 275 283 277 267 268 244 236 235 234 236 236 236 243 243 242 237
10 8 5 7 6 4 6 9 9 7 5 13 1 356 349 358 360 348 338 336 331 334 330 324 313 307 298 290 282 272 269 272 279 272 269 261 245 238 231 235 238 234 238 243 242 238 237
7 7 5 9 8 8 10 11 15 20 17 21 8 0 4 347 340 338 343 340 331 323 323 323 314 308 300 289 280 271 268 266 269 266 262 252 242 243 243 244 241 238 238 242 242 242 238
8 6 7 10 10 11 13 14 18 25 22 27 19 12 8 359 354 347 343 335 328 325 324 319 314 311 304 290 276 267 265 261 254 257 253 252 241 246 240 241 242 239 240 242 245 245 245
9 7 7 9 12 16 17 18 24 27 25 23 21 20 13 1 358 357 350 345 341 336 329 338 326 312 299 291 283 273 267 258 251 251 245 243 239 239 233 240 240 236 242 243 244 248 248
9 7 7 11 16 21 23 26 30 31 28 28 28 20 12 4 2 1 2 359 349 344 339 340 324 312 308 311 293 278 265 255 246 242 241 235 233 236 232 236 227 233 263 251 238 250 258
9 6 8 16 20 24 24 32 39 42 41 35 34 29 26 18 16 15 7 359 354 359 351 248 250 280 308 345 290 267 259 248 240 236 232 231 230 231 229 228 233 238 255 252 246 245 270
8 6 13 19 23 25 23 29 39 46 48 44 39 37 36 28 29 29 19 22 19 15 239 231 284 302 40 25 316 260 236 233 230 227 226 227 228 230 229 225 225 246 263 261 244 240 276
8 3 15 20 25 30 25 32 41 48 57 49 44 43 45 37 51 51 45 47 78 232 215 225 244 154 83 57 315 258 237 234 225 219 212 215 221 221 225 228 232 266 272 242 235 246 274
6 4 15 20 29 35 34 36 40 50 62 52 49 60 56 51 62 76 81 93 169 215 203 223 207 121 71 82 360 263 233 228 226 219 212 215 214 218 223 226 226 275 254 231 255 266 271
4 5 14 21 33 38 39 42 47 54 63 58 52 60 68 66 77 114 169 188 198 179 177 180 176 176 117 79 116 240 236 230 222 210 222 213 225 219 225 222 232 257 249 265 276 266 272